Location: *
(53.4003°S, 165.3236°W)
Time: 02:04:59
(UTC+00:00)

Cosmos 2360 Rocket - Pass Details

Date: 11 December 2023
Orbit: 835 x 843 km, 71.0° (Epoch: 24 February)

Event Time Altitude Azimuth Distance (km) Brightness Sun altitude
Rises 12:10:16 0° 218° (SW) 3,433 5.9 -11.9°
Reaches altitude 10° 12:13:09 10° 231° (SW) 2,492 4.9 -11.7°
Maximum altitude 12:17:37 24° 283° (WNW) 1,687 3.5 -11.5°
Enters shadow 12:21:02 14° 327° (NNW) 2,181 3.7 -11.3°
